Vertical_Velocity
-2 -1 1 0 -1 -3 -7 -5 -6 -5 -6 -7 -5 -2 -1 -4 -1 -1 -2 -0 2 -1 -3 -2 -0 -3 1 4 -2 -0 2 7 -23 12 8 1 -14 -7 0 8 -4 -3 17
0 -0 -3 -3 -2 -2 -1 -3 -3 -3 -4 -5 -4 -6 -2 -5 -1 1 0 1 -2 -2 -2 -3 1 2 -2 0 2 -7 0 8 3 -2 17 -4 -1 5 -6 -7 -8 2 -0
-4 -2 -3 -2 -2 -2 -3 -2 -4 -2 -2 -5 -5 -2 -1 -0 -3 -4 -2 2 -4 -2 -1 -0 -2 -1 1 -1 -5 -3 -8 4 0 -10 0 5 2 -4 -2 -3 -10 -8 -6
-3 -4 -3 -4 -5 -1 -1 -1 -1 -2 -2 -0 -3 -1 -2 -2 3 -1 -2 -0 -2 -2 -3 -1 -0 2 -5 -3 -2 -0 1 -1 9 9 8 7 3 3 1 -5 -8 -1 12
-1 -3 -4 -4 -4 -1 -2 -2 -3 -3 -3 -1 2 -2 -1 -1 -1 0 -1 -4 1 -2 -3 -2 -1 -4 18 8 2 5 6 11 -7 -8 10 -6 3 6 -7 12 8 -6 1
-2 -2 -1 -2 -2 -0 -1 -1 0 -2 -3 -4 2 -3 -0 -0 -1 -3 3 -0 -4 -2 3 2 1 3 2 10 1 16 8 5 31 11 -2 13 5 -3 -2 -4 -4 -6 -14
-3 -2 -1 -2 -2 -1 -1 -1 1 -2 -1 -3 -2 1 -3 -0 0 -2 -2 0 2 -5 -0 3 2 1 19 19 -5 16 36 -6 13 10 -1 5 -1 2 -9 1 -7 -5 -3
-3 -0 -0 -1 -0 -0 -2 -2 1 -3 -2 -0 0 0 -1 -2 -0 -1 -3 1 2 -2 -3 1 1 2 -1 20 6 18 9 22 37 9 -6 4 -1 -9 -1 -2 0 -1 -8
-1 -1 -2 -2 -1 -1 -1 -1 1 0 -0 -4 -2 2 3 -2 -2 -1 -3 -4 -0 4 -0 -4 4 2 -1 -0 8 2 11 21 82 18 -0 -4 1 -0 5 -0 -2 -1 1
-2 -3 -3 -2 -2 -2 -2 -0 -1 -1 -0 0 -3 -2 1 2 -1 2 0 -3 -5 3 -3 4 -0 7 -0 2 1 18 7 43 28 -2 -6 -0 -3 -5 -4 -3 1 3 -2
-3 -3 -4 -4 -3 -2 -1 -2 -1 1 -3 -3 -5 -5 -4 0 1 0 1 1 -2 -3 3 0 6 -3 6 4 3 5 5 -4 2 -1 -1 4 -3 -8 38 51 11 4 2
-2 -3 -3 -3 -1 -2 -1 -2 -2 -3 -1 -2 -1 -5 -7 -3 -3 -2 -1 2 2 -0 -5 -1 -2 5 3 2 6 3 0 5 -0 6 1 2 5 28 3 22 13 4 4
-4 -1 -2 -3 -0 -2 2 2 1 -0 -2 -1 0 1 -1 -6 -5 -3 -6 -2 2 1 0 -1 -4 -5 5 5 4 0 8 0 1 6 14 -10 -5 13 -11 -7 -3 4 5
-2 -2 -3 -1 -1 -3 -5 -4 -7 -5 -4 -4 -4 -4 -2 -2 -5 -3 -1 -5 -3 3 3 -0 -2 2 -6 -7 3 4 2 1 -5 3 2 3 -3 -1 0 5 4 4 1
-1 -1 -3 -2 -2 -1 -13 -5 -3 -7 -10 -9 -4 -3 2 0 -2 -3 1 -1 -5 -2 -0 3 1 -1 4 1 -2 -4 -0 1 -0 1 -3 1 2 5 4 12 -3 6 2
-2 -2 -1 -0 -2 -3 3 -4 -16 -10 -9 -10 -11 -5 -2 -3 2 2 -2 3 0 -2 -2 -2 2 3 -0 0 -2 -3 -6 -6 5 4 1 3 -0 -1 -1 12 3 1 3
-0 -2 -2 -2 -3 -2 -4 -2 8 -6 -15 -7 -6 -6 -4 0 1 -1 1 0 4 2 -2 -0 -1 -1 5 4 2 3 1 3 1 2 1 1 1 0 0 6 3 -1 2
-1 -0 -1 -3 -4 -4 -6 -4 -5 -4 1 3 -4 -4 -3 -2 -0 0 -0 1 0 3 1 -1 -1 -0 -2 -2 -1 1 1 1 1 1 -3 -3 -0 2 -2 2 3 10 1
-2 -3 -4 -4 -5 -4 -5 -6 -8 -8 -7 -4 -1 -5 -5 -7 -2 1 1 -0 2 1 3 2 -0 -1 1 2 0 -0 -1 1 2 -1 2 0 -2 -5 1 -1 -2 -2 2
-1 -3 -2 -2 -3 -3 -4 -4 -4 -5 -7 -5 -4 -2 1 -1 -4 -5 -1 0 -0 1 1 3 3 1 -1 -0 1 1 -2 -3 -1 -1 0 2 2 0 1 -4 -6 -0 1
-4 -4 -4 -4 -4 -3 -1 -2 -4 -4 -4 -4 -4 -4 -2 0 1 0 -2 -3 -1 -0 -0 0 0 1 0 -1 -2 -1 -1 1 2 1 1 -0 -1 1 0 2 2 2 1
-2 -2 -3 -3 -3 -3 -4 -3 -2 -5 -5 -4 -4 -4 -3 -2 -2 -2 -2 -1 -1 -1 -1 0 1 -0 -0 0 0 0 1 1 1 -0 1 2 3 2 -1 3 1 3 2
-2 -3 -3 -3 -4 -4 -5 -4 -4 -5 -4 -3 -3 -3 -2 -2 -2 -2 -2 -3 -1 -1 -0 -1 -0 1 0 0 0 -0 -0 -1 -1 -0 -1 -0 -0 0 1 0 -4 -3 -3
-1 -2 -2 -2 -3 -4 -4 -3 -4 -4 -4 -3 -2 -3 -2 -2 -2 -2 -1 -2 -3 -1 -1 -0 0 -0 1 1 0 0 -0 -1 -0 0 -1 0 -0 -2 -1 -2 -2 -4 -2
-1 -2 -2 -2 -2 -2 -4 -3 -2 -2 -2 -2 -2 -1 -2 -2 -2 -3 -3 -2 -1 -2 -2 -0 -1 0 1 0 1 0 -0 0 -1 -1 0 -0 -2 -2 -1 -1 -3 -2 -2
-1 -1 -1 -1 -2 -3 -3 -4 -4 -2 -0 -1 -1 -2 -0 -0 -0 -1 -1 -2 -2 -2 -1 -1 -1 -1 -0 1 1 1 1 -0 -1 -1 -2 -2 -3 -3 -4 -5 -5 -7 -7
Height
5617 5612 5606 5599 5592 5584 5577 5572 5566 5559 5553 5548 5540 5532 5524 5515 5506 5499 5494 5491 5488 5486 5484 5483 5482 5481 5486 5496 5507 5517 5531 5544 5557 5574 5581 5585 5592 5604 5606 5611 5614 5618 5621
5605 5599 5593 5587 5579 5573 5567 5562 5556 5549 5543 5537 5530 5523 5515 5506 5496 5490 5485 5481 5476 5473 5471 5468 5465 5464 5468 5471 5479 5495 5511 5526 5541 5552 5564 5569 5581 5586 5592 5599 5605 5609 5613
5593 5588 5582 5575 5568 5562 5557 5553 5547 5540 5534 5527 5520 5513 5506 5498 5488 5480 5475 5470 5465 5460 5457 5455 5450 5449 5452 5454 5456 5471 5491 5507 5523 5533 5545 5554 5564 5571 5579 5587 5594 5599 5606
5582 5576 5570 5564 5558 5552 5547 5542 5537 5531 5525 5518 5511 5504 5497 5490 5482 5473 5465 5459 5454 5450 5445 5442 5439 5438 5439 5439 5439 5451 5472 5492 5508 5516 5525 5539 5550 5558 5565 5576 5584 5589 5593
5570 5563 5558 5552 5547 5541 5536 5531 5526 5521 5515 5509 5502 5495 5488 5482 5475 5467 5459 5451 5444 5440 5436 5431 5428 5427 5425 5425 5425 5434 5456 5478 5490 5496 5507 5524 5536 5545 5554 5562 5569 5575 5581
5558 5552 5546 5541 5535 5530 5525 5521 5515 5510 5505 5499 5493 5487 5481 5474 5468 5460 5453 5446 5437 5431 5426 5421 5419 5417 5415 5413 5415 5426 5443 5465 5468 5482 5494 5509 5520 5528 5537 5547 5555 5562 5570
5546 5541 5535 5529 5523 5518 5514 5509 5504 5498 5494 5489 5484 5478 5472 5466 5460 5454 5447 5440 5431 5424 5417 5413 5412 5410 5407 5406 5410 5419 5436 5453 5463 5470 5484 5494 5505 5514 5524 5533 5541 5549 5555
5534 5528 5522 5517 5511 5505 5501 5496 5491 5486 5482 5477 5473 5468 5463 5458 5452 5446 5441 5434 5427 5418 5410 5407 5406 5405 5403 5402 5407 5415 5425 5431 5445 5461 5472 5482 5492 5501 5510 5519 5527 5534 5538
5522 5517 5512 5507 5501 5496 5490 5485 5480 5475 5470 5465 5462 5458 5453 5448 5443 5438 5433 5427 5422 5415 5407 5402 5401 5401 5401 5398 5401 5409 5418 5429 5432 5449 5462 5470 5479 5489 5498 5506 5514 5520 5524
5512 5507 5503 5498 5493 5487 5481 5476 5471 5465 5460 5455 5450 5446 5442 5438 5434 5429 5425 5419 5414 5410 5406 5399 5395 5394 5395 5395 5396 5402 5411 5420 5427 5439 5449 5458 5467 5476 5484 5492 5499 5506 5512
5503 5499 5494 5489 5483 5477 5471 5465 5459 5454 5449 5444 5439 5434 5430 5427 5423 5420 5417 5413 5407 5403 5400 5395 5390 5388 5387 5388 5392 5398 5404 5412 5419 5429 5437 5446 5454 5462 5465 5474 5481 5492 5499
5495 5491 5485 5480 5474 5467 5461 5454 5448 5442 5437 5432 5426 5421 5417 5414 5411 5408 5406 5404 5401 5397 5393 5390 5386 5385 5382 5384 5388 5391 5396 5404 5411 5418 5424 5433 5441 5447 5456 5462 5467 5479 5486
5488 5483 5478 5471 5465 5457 5450 5444 5437 5430 5424 5418 5412 5407 5402 5399 5397 5395 5394 5394 5393 5390 5387 5385 5383 5380 5379 5379 5379 5384 5388 5394 5400 5407 5415 5421 5424 5430 5445 5451 5460 5466 5471
5481 5476 5470 5463 5456 5448 5440 5433 5425 5418 5410 5402 5395 5388 5382 5379 5378 5379 5379 5379 5380 5381 5380 5378 5376 5375 5374 5372 5373 5374 5379 5385 5392 5398 5403 5409 5416 5424 5432 5438 5446 5453 5458
5473 5468 5462 5455 5447 5439 5430 5423 5414 5403 5393 5383 5372 5362 5355 5352 5352 5355 5360 5363 5365 5367 5369 5369 5369 5368 5368 5368 5368 5369 5370 5373 5380 5387 5393 5399 5403 5410 5415 5423 5432 5438 5444
5466 5460 5453 5446 5439 5430 5421 5408 5397 5386 5373 5359 5346 5335 5327 5323 5324 5329 5336 5342 5347 5351 5354 5357 5359 5360 5359 5358 5360 5364 5364 5365 5368 5371 5377 5385 5389 5397 5404 5410 5417 5423 5430
5458 5452 5445 5437 5429 5420 5410 5399 5386 5369 5354 5340 5328 5318 5311 5307 5305 5306 5312 5320 5327 5333 5338 5342 5346 5348 5351 5354 5356 5357 5358 5360 5361 5363 5367 5372 5376 5382 5388 5393 5402 5409 5417
5450 5443 5436 5428 5418 5408 5398 5386 5374 5360 5345 5330 5316 5306 5298 5294 5292 5291 5293 5299 5307 5314 5320 5326 5331 5336 5340 5343 5346 5349 5352 5354 5355 5357 5360 5363 5366 5371 5376 5383 5389 5395 5402
5441 5434 5426 5417 5407 5397 5386 5373 5360 5346 5332 5318 5307 5295 5287 5281 5279 5279 5279 5282 5288 5295 5302 5309 5314 5320 5325 5330 5334 5337 5341 5344 5347 5350 5353 5356 5359 5362 5366 5371 5376 5383 5391
5432 5424 5416 5406 5396 5386 5375 5362 5349 5334 5320 5307 5297 5288 5281 5275 5270 5267 5267 5268 5271 5276 5284 5291 5298 5304 5310 5315 5320 5325 5329 5332 5336 5340 5344 5347 5350 5354 5358 5361 5365 5370 5376
5422 5414 5405 5396 5386 5376 5365 5352 5339 5325 5311 5298 5287 5278 5272 5267 5263 5259 5256 5255 5256 5259 5265 5272 5279 5287 5293 5299 5305 5310 5314 5319 5324 5329 5333 5337 5341 5345 5348 5351 5356 5360 5364
5412 5404 5395 5386 5376 5365 5354 5342 5329 5315 5302 5290 5279 5269 5263 5258 5253 5249 5246 5244 5244 5245 5248 5253 5260 5267 5274 5282 5288 5294 5299 5305 5310 5315 5320 5324 5328 5332 5336 5339 5343 5346 5350
5402 5394 5385 5375 5365 5355 5344 5332 5320 5306 5293 5281 5272 5263 5256 5250 5245 5240 5236 5234 5232 5232 5234 5237 5242 5249 5256 5263 5270 5276 5283 5289 5295 5300 5305 5310 5315 5319 5323 5326 5330 5332 5336
5392 5384 5374 5365 5355 5345 5334 5322 5310 5297 5284 5274 5264 5255 5249 5243 5238 5233 5228 5225 5222 5221 5221 5223 5226 5231 5237 5244 5252 5258 5265 5271 5278 5284 5289 5294 5299 5304 5308 5312 5316 5320 5323
5382 5374 5365 5355 5345 5334 5323 5312 5300 5287 5276 5266 5256 5248 5241 5235 5230 5225 5221 5217 5214 5211 5211 5211 5213 5216 5221 5226 5233 5240 5247 5254 5260 5266 5272 5278 5283 5288 5292 5296 5300 5304 5307
5372 5364 5355 5345 5335 5324 5313 5301 5289 5278 5267 5257 5249 5241 5234 5228 5223 5219 5214 5210 5207 5203 5202 5201 5202 5204 5207 5211 5217 5223 5230 5236 5243 5249 5254 5260 5266 5271 5275 5280 5284 5288 5291